SCP
0 0 -0 0 0 0 0 0 0 0 0 0 0 0 0 0 0 0 0 0 0 0 0 0 0 0 0 0 0 0 0 0 0 0 0 0 0 0 0 0 0 0 0 0
0 0 0 0 0 0 0 0 0 0 0 0 0 0 0 0 0 0 0 0 0 0 0 0 0 0 0 0 0 0 0 0 0 0 0 0 0 0 0 0 0 0 0 0
0 0 0 0 0 0 0 0 0 0 0 0 0 0 0 0 0 0 0 0 0 0 0 0 0 0 0 0 0 0 0 0 0 0 0 0 0 0 0 0 0 0 0 0
0 0 0 0 0 0 0 0 0 0 0 0 0 0 0 0 0 0 0 0 0 0 0 0 0 0 0 0 0 0 0 0 0 0 0 0 0 0 0 0 0 0 0 0
0 0 0 0 0 0 0 0 0 0 0 0 0 0 0 0 0 0 0 0 0 0 0 0 0 0 0 0 0 0 0 0 0 0 0 0 0 0 0 0 0 0 0 0
0 0 0 0 0 0 0 0 0 0 0 0 0 0 0 0 0 0 0 0 0 0 0 0 0 0 0 0 0 0 0 0 0 0 0 0 0 0 0 0 0 0 0 0
0 0 0 0 0 0 0 0 0 0 0 0 0 0 0 0 0 0 0 0 1 0 0 0 0 0 0 0 0 0 0 0 0 0 0 0 0 0 0 0 0 0 0 0
0 0 0 0 0 0 0 0 0 0 0 0 0 0 0 0 0 0 0 0 0 0 0 0 0 0 0 0 0 0 0 0 0 0 0 0 0 0 0 0 0 0 0 0
0 0 0 0 0 0 0 0 0 0 0 0 0 0 0 0 0 0 0 0 0 0 0 0 0 0 0 0 0 0 0 0 0 0 0 0 0 0 0 0 0 0 0 0
0 0 0 0 0 0 0 0 0 0 0 0 0 0 0 0 0 0 0 0 0 0 0 0 0 0 0 0 0 0 0 0 0 0 0 0 0 0 0 0 0 0 0 0
0 0 0 0 0 0 0 0 0 0 0 0 0 0 0 0 0 0 0 0 0 0 0 0 0 0 0 0 0 0 0 0 0 0 0 0 0 0 0 0 0 0 0 0
0 0 0 0 0 0 0 0 0 0 0 0 0 0 0 0 0 0 0 0 0 0 0 0 0 0 0 0 0 0 0 0 0 0 0 0 0 0 0 0 0 0 0 0
0 0 0 0 0 0 0 0 0 0 0 0 0 0 0 0 0 0 0 0 0 0 0 0 0 0 0 0 0 0 0 0 0 0 0 0 0 0 0 0 0 0 0 0
0 0 0 0 0 0 0 0 0 0 0 0 0 0 0 0 0 0 0 0 0 0 0 0 0 0 0 0 0 0 0 0 0 0 0 0 0 0 0 0 0 0 0 0
0 0 0 0 0 0 0 0 0 0 0 0 0 0 0 0 0 0 0 0 0 0 0 0 0 0 0 0 0 0 0 0 0 0 0 0 0 0 0 0 0 0 0 0
0 0 0 0 0 0 0 0 0 0 0 0 0 0 0 0 0 0 0 0 0 0 0 0 0 0 0 0 0 0 0 0 0 0 0 0 0 0 0 0 0 0 0 0
0 0 0 0 0 0 0 0 0 0 0 0 0 0 0 0 0 0 0 0 0 0 0 0 0 0 0 0 0 0 0 0 0 0 0 0 0 0 0 0 0 0 0 0
0 0 0 0 0 0 0 0 0 0 0 0 0 0 0 0 0 0 0 0 0 0 0 0 0 0 0 0 0 0 0 0 0 0 0 0 0 0 0 0 0 0 0 0
0 0 0 0 0 0 0 0 0 0 0 0 0 0 0 0 0 0 0 0 0 0 0 0 0 0 0 0 0 0 0 0 0 0 0 0 0 0 0 0 0 0 0 0
0 0 0 0 0 0 0 0 0 0 0 0 0 0 0 0 0 0 0 0 0 0 0 0 0 0 0 0 0 0 0 0 0 0 0 0 0 0 0 0 0 0 0 0
0 0 0 0 0 0 0 0 0 0 0 0 0 0 0 0 0 0 0 0 0 0 0 0 0 0 0 0 0 0 0 0 0 0 0 0 0 0 0 0 0 0 0 0
0 0 0 0 0 0 0 0 0 0 0 0 0 0 0 0 0 0 0 0 0 0 0 0 0 0 0 0 0 0 0 0 0 0 0 0 0 0 0 0 0 0 0 0
0 0 0 0 0 0 0 0 0 0 0 0 0 0 0 0 0 0 0 0 0 0 0 0 0 0 0 0 0 0 0 0 0 0 0 0 0 0 0 0 0 0 0 0
0 0 0 0 0 0 0 0 0 0 0 0 0 0 0 0 0 0 0 0 0 0 0 0 0 0 0 0 0 0 0 0 0 0 0 0 0 0 0 0 0 0 0 0
0 0 0 0 0 0 0 0 0 0 0 0 0 0 0 0 0 0 0 0 0 0 0 0 0 0 0 0 0 0 0 0 0 0 0 0 0 0 0 0 0 0 0 0
0 0 0 0 0 0 0 0 0 0 0 0 0 0 0 0 0 0 0 0 0 0 0 0 0 0 0 0 0 0 0 0 0 0 0 0 0 0 0 0 0 0 0 0
Wind_Speed
8 10 10 8 5 4 6 8 9 7 6 7 7 8 10 11 11 11 10 10 9 8 7 7 6 5 5 5 4 4 4 4 2 1 2 2 2 2 3 4 5 5 5 4
9 8 6 5 5 6 8 9 9 7 6 4 6 6 9 11 12 11 11 10 9 9 8 6 5 5 5 5 4 4 4 4 2 2 2 2 2 2 3 3 4 5 4 4
8 7 6 7 9 9 8 8 8 8 8 6 6 8 10 11 10 10 10 10 10 10 9 8 6 5 5 5 4 4 4 4 3 2 2 3 3 2 2 3 3 4 4 5
5 6 7 9 8 8 7 5 7 9 9 7 9 7 10 12 12 13 12 11 11 10 10 8 7 6 5 5 5 5 5 4 4 3 3 3 2 3 3 2 3 4 4 5
6 7 8 8 6 6 3 5 7 8 7 6 8 8 6 10 11 13 13 12 11 11 11 9 8 6 6 5 5 5 5 5 4 4 4 3 3 3 2 3 4 3 4 4
4 4 2 2 3 4 7 7 6 7 8 9 7 7 4 7 9 9 11 12 12 11 11 10 9 8 7 6 5 5 5 5 5 4 5 5 5 4 4 3 3 2 3 4
8 7 5 5 6 8 9 9 7 8 8 6 4 7 2 3 2 4 8 10 12 12 11 11 10 9 8 7 6 5 6 5 5 5 5 5 4 3 4 3 3 3 3 3
8 8 6 6 6 7 9 10 7 6 6 4 6 6 2 4 3 3 6 9 11 11 10 10 10 9 8 7 6 5 6 5 5 5 5 4 3 2 3 4 3 3 3 4
4 4 5 3 4 7 8 8 6 8 7 7 5 4 5 5 5 6 8 9 10 10 10 9 9 8 8 7 6 6 6 5 5 5 5 5 4 4 4 3 3 4 4 4
2 3 4 5 6 4 5 5 6 8 7 7 6 7 3 6 6 7 8 9 10 10 9 9 8 8 7 7 6 6 6 5 5 5 4 4 4 4 4 3 5 4 4 5
3 4 5 6 5 5 7 7 7 7 7 8 7 1 5 3 5 6 7 8 10 10 10 9 8 7 7 7 6 6 6 5 5 5 4 4 4 4 3 3 4 4 4 4
2 4 3 3 1 2 5 5 7 7 7 8 7 2 6 5 5 6 7 9 9 10 9 9 9 8 7 6 6 6 5 5 4 4 4 4 3 3 3 4 4 4 4 4
2 4 5 6 7 6 5 4 6 7 6 7 7 3 7 6 7 7 8 9 9 10 10 9 8 7 7 6 5 5 4 4 4 4 3 3 3 3 3 3 3 3 4 4
3 4 6 5 2 1 4 5 6 8 7 6 5 2 5 5 6 7 8 9 10 10 9 9 8 7 7 6 5 5 4 4 4 3 3 3 3 3 3 3 3 3 4 4
3 4 3 2 2 2 3 4 5 6 7 7 3 1 2 4 6 7 8 9 10 9 9 9 8 7 7 7 6 5 5 4 3 3 3 3 3 3 3 3 3 3 3 4
1 2 3 4 4 3 3 3 4 4 5 4 2 1 3 5 7 8 9 9 10 9 9 8 8 8 7 7 6 5 4 4 4 3 3 3 3 3 3 3 3 3 3 3
3 4 5 4 5 5 3 2 3 2 2 3 2 2 6 6 7 7 8 8 9 9 9 9 8 8 7 7 6 5 5 4 4 4 3 3 3 4 3 3 3 3 4 4
3 4 3 3 5 4 3 3 1 1 0 1 3 4 5 6 6 6 6 8 9 10 9 9 9 9 8 8 7 5 5 5 4 4 4 3 3 3 3 3 4 4 4 4
2 4 3 3 3 2 4 1 1 2 1 1 3 4 5 7 7 7 6 7 8 9 9 9 9 9 8 8 7 6 5 5 4 4 4 3 2 2 2 3 3 3 3 3
3 4 4 4 3 1 4 3 1 3 3 3 3 4 6 6 4 6 8 8 9 10 9 9 9 9 8 8 7 6 5 5 5 4 3 3 2 2 2 3 2 3 2 2
4 4 4 4 2 2 4 2 3 4 3 3 3 4 5 3 4 9 10 10 10 11 11 10 9 8 8 8 7 6 6 5 4 4 3 3 3 2 2 2 2 2 2 3
2 2 2 3 3 2 3 1 1 4 3 3 3 5 6 7 9 10 11 11 11 11 11 10 9 8 8 7 7 7 6 5 4 3 3 3 3 2 3 2 2 1 1 1
1 3 2 2 3 5 2 3 3 2 2 3 5 7 8 9 10 11 11 11 11 11 10 9 9 9 7 7 6 7 6 5 5 4 3 3 3 2 1 1 1 0 0 0
3 1 1 2 3 3 2 3 3 3 4 5 6 8 8 9 10 10 10 10 10 10 10 9 9 9 8 7 6 6 5 5 4 4 3 2 2 2 2 0 0 1 1 2
2 4 3 3 4 4 3 3 4 5 6 7 7 7 8 9 10 10 9 10 9 9 9 9 8 8 8 7 7 6 5 5 4 3 3 2 2 2 1 1 2 3 4 4
2 2 2 2 3 2 4 4 5 6 6 7 8 8 7 8 10 10 9 9 9 9 9 9 9 8 8 8 7 6 6 5 4 4 3 2 2 2 2 2 3 1 1 1
Wind_Direction
187 203 188 175 194 157 171 174 163 142 146 191 179 163 164 173 183 177 170 165 161 149 133 124 118 109 102 99 98 94 93 95 97 109 120 105 96 84 74 66 51 42 33 23
191 191 159 155 179 184 184 182 160 140 145 197 176 173 175 183 192 187 180 176 169 155 144 136 129 125 117 111 110 103 96 95 95 98 99 89 89 82 74 68 57 37 33 18
195 135 152 184 184 191 195 198 172 156 151 179 185 189 189 190 196 196 191 184 177 169 160 152 147 138 127 117 109 98 91 93 88 104 120 125 133 129 95 73 62 39 28 28
173 151 186 195 189 201 186 180 181 172 191 186 210 223 187 190 197 202 196 188 182 173 165 158 152 140 126 117 110 102 94 86 82 91 86 84 76 79 68 49 54 49 42 29
156 172 190 192 184 210 150 162 190 200 219 219 207 249 175 181 205 205 195 188 181 175 164 157 150 138 129 123 116 109 102 91 79 73 82 83 75 77 75 62 62 45 55 40
141 162 205 180 163 175 154 167 177 213 229 231 218 244 215 181 209 199 183 180 173 167 160 156 148 142 135 128 118 114 108 96 86 76 71 70 71 62 55 48 48 48 57 44
166 170 167 179 170 171 196 203 206 214 221 229 187 240 255 119 165 186 174 168 165 162 159 158 153 147 140 129 118 113 106 96 87 81 75 72 70 72 61 37 53 30 38 39
183 171 171 196 218 199 209 238 254 258 247 217 188 234 114 95 101 139 144 145 152 156 154 156 152 147 139 130 124 114 103 94 86 82 77 72 62 56 61 43 28 34 26 31
199 151 144 178 219 232 215 233 275 271 264 262 226 193 151 132 135 132 136 140 145 147 148 148 146 142 136 128 121 111 104 96 86 83 89 82 68 54 55 56 38 41 32 27
224 194 170 171 191 200 264 240 235 253 259 259 239 230 194 159 157 148 148 147 143 142 143 140 137 134 129 126 121 112 105 97 93 94 89 82 73 64 56 47 48 36 27 22
217 223 190 190 221 207 199 216 240 259 268 268 259 217 61 123 147 152 151 148 145 146 146 140 133 132 130 129 126 119 110 102 94 86 82 75 65 59 50 46 44 34 23 15
219 256 232 203 175 266 247 242 238 254 252 260 275 94 77 107 126 136 138 139 140 140 137 134 133 134 134 130 123 115 110 101 92 85 79 78 71 62 51 48 36 29 22 15
183 221 224 198 188 193 219 234 249 258 262 259 263 138 109 114 117 127 135 135 137 137 137 138 141 143 141 136 127 118 116 105 98 94 89 82 70 61 50 42 31 25 24 22
270 246 267 274 305 262 225 228 240 251 255 257 263 178 137 135 137 137 135 137 140 142 144 146 148 149 146 141 134 130 124 113 104 100 92 77 58 49 45 42 38 30 26 23
250 237 240 253 254 251 264 259 244 253 275 281 279 162 126 151 145 140 139 141 144 148 151 154 156 150 147 142 136 134 128 124 122 115 98 84 68 53 45 40 39 38 32 28
232 232 215 213 205 215 242 274 265 259 268 264 239 118 95 122 131 137 144 152 154 156 155 154 156 151 150 146 144 142 136 135 131 121 99 80 70 58 48 40 39 41 37 29
193 213 232 219 208 222 215 294 280 251 266 268 270 102 132 140 144 147 154 162 162 157 154 156 155 150 147 146 145 146 138 135 126 115 95 81 66 56 42 40 43 39 37 36
209 225 237 222 219 227 84 55 348 259 23 9 93 119 136 133 134 139 153 161 157 152 151 151 146 143 144 141 141 142 139 133 126 114 101 89 71 60 44 46 49 45 42 40
227 235 243 245 230 173 145 116 321 275 179 97 121 125 126 126 134 131 135 145 145 146 144 142 141 141 140 140 144 147 146 137 127 115 106 97 86 69 62 62 58 51 47 47
177 231 243 237 246 206 98 76 357 264 187 127 137 141 143 163 184 126 131 135 133 132 133 135 138 139 140 143 148 150 145 134 123 117 110 101 87 66 61 64 61 57 53 48
182 199 230 239 235 95 62 41 239 250 74 115 143 147 159 159 62 114 131 131 130 130 133 138 141 142 142 146 151 149 142 132 127 126 122 112 99 92 81 76 70 60 52 45
242 211 206 246 235 109 74 204 331 37 70 116 130 138 132 111 112 124 129 131 133 134 138 143 144 142 145 154 156 149 138 135 140 136 124 116 113 97 91 85 77 63 39 76
286 345 352 6 49 76 77 52 60 85 112 122 125 126 128 128 131 132 132 135 139 141 143 148 147 144 148 155 158 148 143 152 155 151 135 125 123 118 107 112 95 137 160 6
144 155 189 148 126 120 116 106 102 103 111 119 125 131 136 134 135 135 136 140 144 147 149 153 154 152 151 154 155 150 151 160 162 150 140 143 147 143 127 190 117 34 36 32
127 173 182 165 140 139 133 121 111 108 113 116 120 132 137 137 139 140 142 146 149 151 153 159 160 158 154 155 154 157 158 162 158 150 151 159 154 129 141 106 26 360 32 21
181 207 219 122 131 154 131 128 123 124 127 126 127 130 133 137 141 143 145 148 151 152 154 159 163 161 156 158 158 159 160 162 163 164 172 175 166 156 174 156 151 144 290 247